Wind_Speed
2 4 7 13 8 2 3 4 6 5 8 1 5 3 12 11 7 10 9 9 9 12 13 24 31 32 34 35 35 38 38 39 38 38 34 31 32 33 32 30 27 24 24 29
2 4 13 10 8 10 8 6 7 11 12 6 4 4 3 8 11 14 14 11 13 7 7 12 23 28 31 35 38 37 37 38 40 40 42 38 37 33 34 32 31 30 28 27
5 3 7 9 8 11 11 7 8 5 3 4 5 4 5 4 6 7 8 10 12 12 11 11 14 24 28 29 38 40 39 40 42 43 39 35 30 28 27 32 32 34 33 32
5 3 7 7 9 10 3 8 12 5 3 4 3 3 5 6 7 7 11 10 14 13 10 10 14 19 26 38 39 41 42 45 45 44 42 38 29 24 27 28 30 31 31 31
5 6 7 7 5 8 9 2 9 3 5 4 0 3 7 3 7 10 11 15 17 15 14 14 15 25 33 33 41 45 45 47 47 46 45 39 33 34 34 29 33 32 32 33
6 2 3 7 5 9 5 6 4 4 4 2 5 5 5 5 10 6 6 14 16 16 13 12 22 24 27 29 31 37 40 46 46 45 45 40 39 36 30 32 32 33 34 34
7 4 4 4 3 3 5 6 3 3 3 5 2 4 9 4 8 10 12 13 16 14 11 9 13 15 22 28 32 33 38 42 46 42 43 46 45 40 34 34 34 30 32 35
2 7 2 3 5 5 5 7 6 6 4 3 2 4 5 6 6 1 5 9 8 10 10 10 15 18 23 28 29 33 33 41 38 42 44 45 43 33 34 35 36 36 34 35
2 6 5 6 4 7 3 3 4 7 2 3 2 6 6 6 8 8 7 6 6 10 12 15 13 19 24 26 27 35 36 38 37 40 40 37 32 29 17 15 16 31 35 31
3 4 2 7 3 1 4 6 1 3 4 2 4 4 4 9 6 7 9 8 8 8 6 8 8 9 7 14 26 24 22 20 21 19 27 21 12 11 2 3 42 51 46 38
3 2 7 2 2 2 4 2 7 6 4 5 2 5 4 9 6 8 5 7 7 7 7 6 6 10 9 11 11 15 18 21 16 14 17 17 16 9 5 17 50 42 30 50
6 4 2 8 7 2 2 2 3 5 2 2 4 4 6 7 5 9 8 8 6 7 8 8 8 13 14 14 17 16 8 4 3 5 11 17 13 4 19 24 34 33 44 54
4 0 3 6 6 5 4 2 5 6 3 2 5 4 2 7 6 6 8 6 5 3 6 6 7 8 16 17 16 13 7 8 10 11 10 10 5 8 16 22 26 34 35 27
5 1 5 5 5 3 3 5 3 6 4 4 5 6 2 2 5 6 6 5 5 7 8 7 9 7 14 13 13 13 10 11 8 8 7 11 19 23 22 22 19 9 3 9
6 4 4 7 7 3 2 1 2 2 5 6 7 8 5 4 4 3 2 5 8 7 8 8 9 7 9 12 15 14 14 17 20 21 22 21 21 17 15 18 19 11 12 16
3 3 5 3 5 3 6 8 7 6 6 6 8 4 4 3 3 4 6 8 8 8 7 6 5 6 11 14 14 14 16 19 20 23 24 21 22 23 18 18 11 14 16 15
7 5 3 4 4 3 6 6 3 5 6 6 6 4 5 2 7 7 6 8 8 6 4 4 5 6 10 12 12 14 15 16 17 18 21 22 22 21 23 21 18 16 18 18
6 6 2 2 4 4 6 1 13 11 6 6 7 5 5 5 4 5 4 7 7 6 5 3 3 4 3 1 2 5 7 11 15 17 19 21 23 24 22 18 20 24 20 19
4 5 4 4 3 2 2 6 5 5 3 2 5 4 3 3 5 5 2 1 5 4 4 6 6 3 2 5 5 5 10 14 14 17 19 20 21 22 23 24 26 27 25 27
6 7 4 2 4 5 6 2 1 4 2 7 4 4 3 3 2 3 2 3 3 5 3 4 6 6 7 9 8 10 18 19 22 24 21 22 22 23 23 28 31 32 28 28
4 4 4 2 2 6 4 6 4 3 4 5 5 5 5 3 4 3 4 3 2 3 5 5 7 12 12 16 14 16 19 22 24 26 25 24 23 24 26 28 31 32 31 27
4 5 2 3 2 5 3 1 4 4 3 6 4 4 6 5 3 1 2 2 5 9 13 15 15 13 15 17 19 21 23 26 27 24 24 24 26 25 27 26 30 31 30 27
1 5 5 5 5 3 4 4 3 3 5 4 6 4 6 5 4 4 3 4 6 8 9 11 10 14 17 19 19 20 26 24 28 28 28 27 28 27 27 27 29 26 24 20
4 3 4 4 3 0 3 3 4 3 6 6 5 5 3 5 5 5 5 4 3 7 9 9 12 15 18 21 23 24 23 25 25 24 25 26 26 27 29 29 27 24 22 20
3 2 6 1 2 1 2 2 4 5 5 4 3 4 5 6 5 5 3 4 4 7 9 11 13 14 19 21 20 20 23 24 24 23 24 22 22 23 25 24 23 22 27 26
2 6 5 5 7 4 3 1 2 6 5 6 9 8 5 6 7 4 3 2 4 8 11 12 14 16 18 21 21 24 24 23 22 22 20 22 21 20 19 19 26 30 29 29
Wind_Direction
31 120 140 238 190 287 207 217 257 240 248 139 217 125 191 195 201 204 216 216 215 219 220 212 218 219 216 208 205 208 209 214 214 216 219 220 218 218 225 229 229 226 230 233
88 196 213 229 256 244 253 263 268 281 232 157 158 242 146 180 215 207 211 215 224 222 217 209 207 207 206 207 209 209 213 214 212 214 213 215 220 229 234 237 237 235 235 237
176 212 161 201 248 257 255 231 258 211 73 58 111 328 252 196 212 204 223 215 223 209 211 213 204 204 206 205 207 214 216 214 213 214 217 221 228 232 231 232 232 232 235 237
216 199 193 219 237 203 265 232 238 163 124 183 72 254 264 222 228 221 220 213 222 217 216 209 212 205 204 211 213 216 218 216 218 221 222 223 224 230 239 241 239 237 236 235
255 186 188 232 215 166 226 77 172 154 93 114 119 64 266 161 230 234 225 222 219 222 209 207 207 211 213 213 215 218 222 224 224 225 227 225 224 231 237 244 244 243 245 247
238 229 220 214 225 191 266 108 65 87 90 26 230 150 276 188 213 240 220 226 226 221 215 213 221 219 221 219 218 221 221 225 227 228 230 226 229 230 232 238 241 247 251 250
331 270 275 190 309 47 97 65 353 4 16 222 255 144 242 248 232 210 212 222 226 225 218 202 214 211 218 221 220 221 225 230 229 229 230 230 232 234 234 237 242 242 251 258
264 321 217 148 190 194 199 154 158 201 196 263 49 232 253 253 257 143 230 231 210 206 217 208 216 209 215 224 223 222 226 234 233 232 232 234 235 232 235 241 241 248 254 262
137 276 291 228 229 147 186 185 174 108 41 85 240 302 321 34 45 48 12 50 201 194 205 221 226 209 213 224 226 229 232 238 241 237 238 235 234 230 247 313 287 281 269 267
227 298 286 292 324 237 183 153 77 23 131 196 316 299 268 356 339 37 23 11 360 4 358 358 352 357 306 253 246 247 256 273 279 272 255 245 224 194 161 344 330 305 304 282
161 141 286 323 50 208 348 71 59 110 108 146 126 286 275 273 199 111 49 31 21 26 20 360 335 332 323 305 311 285 291 297 288 265 244 209 196 190 205 214 248 270 268 280
207 174 302 253 276 232 209 156 106 114 228 80 127 289 349 355 352 98 72 44 21 28 22 11 359 353 341 320 316 325 347 2 114 205 181 172 176 277 294 256 256 235 221 246
193 47 325 345 356 8 64 70 100 108 92 174 122 239 38 11 47 46 87 65 45 60 38 13 7 7 12 11 2 3 35 51 100 130 154 165 252 298 302 247 227 233 250 262
85 159 165 196 220 215 27 353 98 113 101 176 194 160 226 324 108 69 59 67 58 43 35 27 23 22 33 29 20 15 0 346 337 322 319 315 318 322 310 276 284 283 241 296
179 254 178 229 241 180 107 291 272 146 157 154 186 148 195 190 123 81 54 69 75 59 44 36 32 26 37 31 16 3 347 336 331 323 318 324 329 320 293 290 281 264 289 257
203 249 172 291 317 83 62 17 75 50 94 58 105 119 144 109 184 102 75 92 75 61 52 46 38 37 39 36 25 13 359 346 340 333 326 321 327 338 340 339 320 318 326 285
163 146 122 236 338 69 13 329 352 61 41 125 152 200 124 117 62 54 83 89 91 91 96 76 55 46 37 25 16 8 355 343 337 329 328 327 327 332 335 338 335 332 320 312
132 104 67 170 21 68 237 58 95 87 51 51 85 87 146 151 105 82 115 127 127 129 145 119 112 87 71 21 341 340 337 323 320 317 317 317 316 317 322 324 323 319 310 299
62 117 72 116 75 321 273 245 180 140 217 225 122 132 133 102 65 38 61 186 147 153 181 191 184 189 261 261 263 304 309 300 298 291 288 297 305 307 308 308 312 311 302 300
67 69 107 103 114 188 228 146 291 126 224 186 156 175 154 94 62 249 183 161 189 197 195 226 226 261 294 324 306 321 322 315 311 313 302 297 302 301 302 306 306 306 300 293
17 12 111 101 174 285 254 254 165 212 245 131 166 160 143 145 194 213 180 192 221 283 289 291 295 290 349 354 346 330 327 325 318 312 309 309 311 309 310 311 312 309 303 297
166 134 159 100 87 279 34 338 187 180 96 135 119 111 103 110 106 159 221 289 349 337 344 352 347 351 3 349 341 331 326 328 321 322 324 320 317 318 315 313 313 311 305 300
201 178 177 163 211 276 308 111 103 137 119 95 112 137 135 115 63 50 6 29 355 7 31 36 18 355 350 344 337 330 334 332 330 328 329 331 322 318 319 314 307 300 297 285
5 99 94 87 285 151 100 95 116 106 111 127 147 151 104 113 128 85 74 52 34 22 19 11 0 350 339 335 335 343 344 344 342 334 330 333 326 326 324 319 309 300 295 292
190 79 126 40 303 91 15 134 115 107 108 113 100 81 88 76 64 98 86 40 25 8 359 351 348 337 334 342 352 353 349 348 337 334 335 327 325 323 317 315 308 309 307 293
183 166 155 202 192 160 202 358 93 100 79 72 93 62 55 99 112 124 104 48 4 338 335 338 342 342 346 356 0 2 356 351 342 332 330 329 329 330 330 328 329 333 319 316
Height
773 788 797 769 774 771 778 785 788 772 757 763 769 769 769 764 766 768 767 765 763 761 755 757 759 761 764 767 770 772 775 777 782 785 788 790 789 791 793 794 796 798 800 802
783 791 773 758 763 772 777 783 783 765 750 762 772 772 763 766 760 758 757 760 758 758 757 755 757 758 760 763 766 769 770 773 776 778 778 781 782 784 785 788 790 792 794 797
781 767 758 767 770 775 774 781 772 780 758 760 770 781 769 759 756 753 752 751 751 753 754 753 755 756 758 761 761 763 766 768 771 773 776 777 778 778 777 777 778 780 783 786
774 759 763 766 769 764 789 751 755 763 778 801 770 817 780 764 765 755 749 750 747 746 748 750 753 753 754 753 757 757 758 758 760 763 765 769 772 773 774 777 779 779 780 779
765 759 760 764 753 747 762 738 752 759 783 787 786 807 785 765 768 758 748 740 739 738 741 745 745 745 746 749 748 750 752 753 755 757 760 763 765 765 768 771 772 775 778 781
753 732 741 744 731 734 727 748 769 779 792 818 793 798 791 778 760 750 741 735 732 732 735 740 740 743 743 744 746 747 748 748 751 754 757 760 759 761 762 764 766 771 774 774
758 748 733 727 741 731 743 773 815 813 819 821 794 800 778 748 742 735 735 732 727 727 731 735 735 737 739 738 738 741 742 741 744 747 750 750 752 756 760 760 761 763 766 769
788 787 740 725 736 748 753 766 807 823 832 815 785 800 772 737 728 725 723 725 724 727 726 728 725 727 730 731 733 735 736 736 739 740 741 743 748 753 752 755 754 754 755 759
788 779 733 727 721 729 749 769 758 803 807 813 804 780 746 736 736 735 734 728 727 724 721 719 719 721 724 727 730 731 732 733 734 734 737 739 743 746 758 765 760 769 759 755
764 788 742 731 719 719 730 738 775 793 817 815 812 794 792 771 758 744 742 739 734 729 728 729 727 729 730 731 731 733 734 736 737 738 739 743 745 747 748 735 724 752 763 755
757 775 760 740 743 747 746 753 775 787 802 822 830 812 767 770 758 754 750 743 742 739 734 732 729 727 729 730 732 732 732 730 730 729 730 733 737 741 742 736 743 735 755 759
753 769 777 759 727 724 734 742 764 795 795 817 817 810 760 766 758 749 751 748 746 741 738 734 731 729 728 729 728 727 729 731 730 729 731 733 737 737 735 731 729 731 738 747
745 769 792 765 748 731 741 738 761 777 788 803 814 810 759 766 765 757 756 755 754 751 747 746 743 741 738 735 734 734 736 737 737 734 735 735 737 735 731 728 731 735 738 739
744 767 771 790 767 752 750 743 746 762 794 802 802 790 771 770 769 763 761 759 759 756 754 752 750 748 745 744 742 740 740 740 739 737 736 735 731 728 728 730 731 729 727 727
747 770 764 758 755 744 748 750 745 749 763 771 781 786 775 770 767 762 762 761 761 761 757 756 756 755 752 749 746 744 742 740 735 733 731 730 731 731 730 727 725 721 721 720
747 763 758 756 748 742 760 758 755 759 768 774 780 779 763 764 765 766 763 760 761 762 762 760 759 755 752 750 749 747 745 742 738 733 729 729 729 726 723 721 720 716 713 712
750 759 772 775 762 757 780 772 764 764 764 770 784 772 766 770 765 762 764 762 763 763 763 762 759 756 753 752 750 747 744 742 739 735 730 725 722 719 718 715 713 711 707 705
753 767 782 784 776 806 779 756 757 768 769 767 768 766 763 765 764 763 762 763 764 763 762 761 758 756 754 752 749 747 745 742 738 733 728 723 719 715 712 711 709 706 703 701
738 761 788 793 804 788 768 761 758 766 776 763 766 763 760 761 765 768 762 761 761 762 761 759 757 755 753 751 748 745 743 740 737 732 727 722 717 712 707 703 700 698 696 691
739 748 764 792 791 802 767 747 742 745 784 757 762 764 762 765 785 779 764 763 762 761 760 758 756 753 750 749 747 743 741 738 733 727 722 718 714 710 704 699 694 690 686 683
773 777 786 799 792 781 764 750 744 780 779 756 760 762 762 771 771 765 761 762 760 760 759 757 755 753 751 748 746 743 739 734 729 722 717 713 710 706 701 696 690 683 679 675
767 781 788 799 794 790 751 745 760 762 756 756 756 759 763 763 762 761 759 760 762 762 759 758 756 754 749 747 744 740 735 731 726 720 715 710 705 699 695 690 685 679 672 666
768 762 771 776 779 759 752 751 751 752 754 755 758 760 760 760 760 759 761 762 762 762 760 757 755 753 749 746 742 738 734 729 723 718 712 706 700 694 689 685 680 674 669 664
747 748 769 772 763 758 754 751 750 751 754 755 756 756 756 759 761 763 763 763 762 760 757 756 754 751 748 745 741 738 732 727 721 714 709 703 697 691 686 681 676 671 665 660
754 753 769 775 763 759 754 750 750 753 753 754 754 756 757 758 761 762 763 762 761 758 756 755 752 749 746 742 738 735 730 724 719 712 707 702 696 689 683 678 673 668 660 656
749 756 766 773 757 759 757 751 749 754 756 756 756 758 759 759 761 761 762 761 759 758 756 753 751 748 745 741 737 732 729 723 717 712 706 701 695 689 683 677 666 661 655 649